Time,TemperatureF,DewpointF,PressureIn,WindDirection,WindDirectionDegrees,WindSpeedMPH,WindSpeedGustMPH,Humidity,HourlyPrecipIn,Conditions,Clouds,dailyrainin,SolarRadiationWatts/m^2,SoftwareType,DateUTC
2013-06-25 00:00:00,54.7,53.8,30.11,NE,45,0.0,0.0,97,0.00,CLR,,0.00,0.0,WeatherDisplay:10.37,2013-06-24 14:00:00,
2013-06-25 00:15:00,54.3,53.5,30.10,NE,45,0.0,0.0,97,0.00,CLR,,0.00,0.0,WeatherDisplay:10.37,2013-06-24 14:15:00,
2013-06-25 00:20:00,54.1,53.3,30.10,NE,45,0.0,0.0,97,0.00,CLR,,0.00,0.0,WeatherDisplay:10.37,2013-06-24 14:20:00,
2013-06-25 00:25:00,54.1,53.3,30.10,NE,45,0.0,0.0,97,0.00,CLR,,0.00,0.0,WeatherDisplay:10.37,2013-06-24 14:25:00,
2013-06-25 00:30:00,54.1,53.3,30.10,NE,45,0.0,0.0,97,0.00,CLR,,0.00,0.0,WeatherDisplay:10.37,2013-06-24 14:30:00,
2013-06-25 00:35:00,54.1,53.3,30.10,NE,45,0.0,0.0,97,0.00,CLR,,0.00,0.0,WeatherDisplay:10.37,2013-06-24 14:35:00,
2013-06-25 00:45:00,53.6,52.8,30.10,NE,45,0.0,0.0,97,0.00,CLR,,0.00,0.0,WeatherDisplay:10.37,2013-06-24 14:45:00,
2013-06-25 00:50:00,53.6,52.8,30.10,NE,45,0.0,0.0,97,0.00,CLR,,0.00,0.0,WeatherDisplay:10.37,2013-06-24 14:50:00,
2013-06-25 00:55:00,53.5,52.7,30.10,NE,45,0.0,0.0,97,0.00,CLR,,0.00,0.0,WeatherDisplay:10.37,2013-06-24 14:55:00,
2013-06-25 01:00:00,53.6,52.8,30.10,NE,45,0.0,0.0,97,0.00,CLR,,0.00,0.0,WeatherDisplay:10.37,2013-06-24 15:00:00,
2013-06-25 01:05:00,53.6,52.8,30.10,NE,45,0.0,0.0,97,0.00,CLR,,0.00,0.0,WeatherDisplay:10.37,2013-06-24 15:05:00,
2013-06-25 01:10:00,53.2,52.6,30.09,NE,45,0.0,0.0,98,0.00,CLR,,0.00,0.0,WeatherDisplay:10.37,2013-06-24 15:10:00,
2013-06-25 01:20:00,53.1,52.5,30.09,NE,45,0.0,0.0,98,0.00,CLR,,0.00,0.0,WeatherDisplay:10.37,2013-06-24 15:20:00,
2013-06-25 01:25:00,52.9,52.3,30.09,NE,45,0.0,0.0,98,0.00,CLR,,0.00,0.0,WeatherDisplay:10.37,2013-06-24 15:25:00,
2013-06-25 01:30:00,53.1,52.5,30.09,NE,45,0.0,0.0,98,0.00,CLR,,0.00,0.0,WeatherDisplay:10.37,2013-06-24 15:30:00,
2013-06-25 01:35:00,53.1,52.5,30.09,NE,45,0.0,0.0,98,0.00,CLR,,0.00,0.0,WeatherDisplay:10.37,2013-06-24 15:35:00,
2013-06-25 01:40:00,53.2,52.7,30.09,NE,45,0.0,0.0,98,0.00,CLR,,0.00,0.0,WeatherDisplay:10.37,2013-06-24 15:40:00,
2013-06-25 01:45:00,53.1,52.5,30.09,NE,45,0.0,0.0,98,0.00,CLR,,0.00,0.0,WeatherDisplay:10.37,2013-06-24 15:45:00,
2013-06-25 01:50:00,52.9,52.3,30.09,NE,45,0.0,0.0,98,0.00,CLR,,0.00,0.0,WeatherDisplay:10.37,2013-06-24 15:50:00,
2013-06-25 01:55:00,52.7,52.2,30.09,NE,45,0.0,0.0,98,0.00,CLR,,0.00,0.0,WeatherDisplay:10.37,2013-06-24 15:55:00,
2013-06-25 02:05:00,52.7,52.2,30.09,NE,45,0.0,0.0,98,0.00,CLR,,0.00,0.0,WeatherDisplay:10.37,2013-06-24 16:05:00,
2013-06-25 02:10:00,52.7,52.2,30.09,NE,45,0.0,0.0,98,0.00,CLR,,0.00,0.0,WeatherDisplay:10.37,2013-06-24 16:10:00,
2013-06-25 02:20:00,52.9,52.3,30.09,NE,45,0.0,0.0,98,0.00,CLR,,0.00,0.0,WeatherDisplay:10.37,2013-06-24 16:20:00,
2013-06-25 02:25:00,52.8,52.2,30.09,NE,45,0.0,0.0,98,0.00,CLR,,0.00,0.0,WeatherDisplay:10.37,2013-06-24 16:25:00,
2013-06-25 02:30:00,53.0,52.4,30.09,NE,45,0.0,0.0,98,0.00,CLR,,0.00,0.0,WeatherDisplay:10.37,2013-06-24 16:30:00,
2013-06-25 02:35:00,52.7,52.2,30.08,NE,45,2.0,2.0,98,0.00,CLR,,0.00,0.0,WeatherDisplay:10.37,2013-06-24 16:35:00,
2013-06-25 02:40:00,52.7,52.2,30.09,NE,45,2.0,3.0,98,0.00,CLR,,0.00,0.0,WeatherDisplay:10.37,2013-06-24 16:40:00,
2013-06-25 02:45:00,52.9,52.3,30.08,NE,45,1.0,3.0,98,0.00,CLR,,0.00,0.0,WeatherDisplay:10.37,2013-06-24 16:45:00,
2013-06-25 02:50:00,52.7,52.2,30.08,NE,45,1.0,2.0,98,0.00,CLR,,0.00,0.0,WeatherDisplay:10.37,2013-06-24 16:50:00,
2013-06-25 02:55:00,52.7,52.2,30.08,NE,45,1.0,3.0,98,0.00,CLR,,0.00,0.0,WeatherDisplay:10.37,2013-06-24 16:55:00,
2013-06-25 03:00:00,52.7,52.2,30.08,NE,45,1.0,2.0,98,0.00,CLR,,0.00,0.0,WeatherDisplay:10.37,2013-06-24 17:00:00,
2013-06-25 03:05:00,52.9,52.3,30.08,NE,45,2.0,3.0,98,0.00,CLR,,0.00,0.0,WeatherDisplay:10.37,2013-06-24 17:05:00,
2013-06-25 03:10:00,53.1,52.5,30.08,NE,45,3.0,4.0,98,0.00,CLR,,0.00,0.0,WeatherDisplay:10.37,2013-06-24 17:10:00,
2013-06-25 03:15:00,53.1,52.5,30.08,NE,45,1.0,3.0,98,0.00,CLR,,0.00,0.0,WeatherDisplay:10.37,2013-06-24 17:15:00,
2013-06-25 03:20:00,53.6,52.7,30.08,NE,45,1.0,3.0,97,0.00,CLR,,0.00,0.0,WeatherDisplay:10.37,2013-06-24 17:20:00,
2013-06-25 03:25:00,53.6,52.8,30.08,NE,45,1.0,2.0,97,0.00,CLR,,0.00,0.0,WeatherDisplay:10.37,2013-06-24 17:25:00,
2013-06-25 03:30:00,53.6,52.8,30.08,NE,45,0.0,2.0,97,0.00,CLR,,0.00,0.0,WeatherDisplay:10.37,2013-06-24 17:30:00,
2013-06-25 03:35:00,53.3,52.8,30.07,NE,45,0.0,1.0,98,0.00,CLR,,0.00,0.0,WeatherDisplay:10.37,2013-06-24 17:35:00,
2013-06-25 03:40:00,53.5,52.6,30.08,NE,45,0.0,2.0,97,0.00,CLR,,0.00,0.0,WeatherDisplay:10.37,2013-06-24 17:40:00,
2013-06-25 03:45:00,53.2,52.7,30.07,NE,45,0.0,1.0,98,0.00,CLR,,0.00,0.0,WeatherDisplay:10.37,2013-06-24 17:45:00,
2013-06-25 03:50:00,53.2,52.7,30.08,NE,45,0.0,2.0,98,0.00,CLR,,0.00,0.0,WeatherDisplay:10.37,2013-06-24 17:50:00,
2013-06-25 03:55:00,53.1,52.5,30.07,NE,45,0.0,1.0,98,0.00,CLR,,0.00,0.0,WeatherDisplay:10.37,2013-06-24 17:55:00,
2013-06-25 04:00:00,52.9,52.3,30.07,NE,45,0.0,0.0,98,0.00,CLR,,0.00,0.0,WeatherDisplay:10.37,2013-06-24 18:00:00,
2013-06-25 04:05:00,52.7,52.2,30.07,NE,45,0.0,0.0,98,0.00,CLR,,0.00,0.0,WeatherDisplay:10.37,2013-06-24 18:05:00,
2013-06-25 04:10:00,52.5,52.0,30.07,NE,45,0.0,0.0,98,0.00,CLR,,0.00,0.0,WeatherDisplay:10.37,2013-06-24 18:10:00,
2013-06-25 04:15:00,52.4,51.9,30.08,NE,45,0.0,0.0,98,0.00,CLR,,0.00,0.0,WeatherDisplay:10.37,2013-06-24 18:15:00,
2013-06-25 04:20:00,52.3,51.8,30.08,NE,45,0.0,0.0,98,0.00,CLR,,0.00,0.0,WeatherDisplay:10.37,2013-06-24 18:20:00,
2013-06-25 04:25:00,52.3,51.8,30.07,NE,45,0.0,0.0,98,0.00,CLR,,0.00,0.0,WeatherDisplay:10.37,2013-06-24 18:25:00,
2013-06-25 04:30:00,52.2,51.6,30.08,NE,45,0.0,0.0,98,0.00,CLR,,0.00,0.0,WeatherDisplay:10.37,2013-06-24 18:30:00,
2013-06-25 04:45:00,52.0,51.4,30.08,NE,45,0.0,2.0,98,0.00,CLR,,0.00,0.0,WeatherDisplay:10.37,2013-06-24 18:45:00,
2013-06-25 04:55:00,52.0,51.4,30.07,NE,45,0.0,2.0,98,0.00,CLR,,0.00,0.0,WeatherDisplay:10.37,2013-06-24 18:55:00,
2013-06-25 05:00:00,52.0,51.4,30.07,NE,45,0.0,1.0,98,0.00,CLR,,0.00,0.0,WeatherDisplay:10.37,2013-06-24 19:00:00,
2013-06-25 05:15:00,52.2,51.6,30.08,NE,45,2.0,4.0,98,0.00,CLR,,0.00,0.0,WeatherDisplay:10.37,2013-06-24 19:15:00,
2013-06-25 05:20:00,52.5,51.9,30.07,NE,45,2.0,4.0,98,0.00,CLR,,0.00,0.0,WeatherDisplay:10.37,2013-06-24 19:20:00,
2013-06-25 05:30:00,52.9,52.3,30.07,NE,45,1.0,2.0,98,0.00,CLR,,0.00,0.0,WeatherDisplay:10.37,2013-06-24 19:30:00,
2013-06-25 05:40:00,53.2,52.7,30.08,NE,45,0.0,1.0,98,0.00,CLR,,0.00,0.0,WeatherDisplay:10.37,2013-06-24 19:40:00,
2013-06-25 05:45:00,53.6,52.8,30.08,NE,45,0.0,1.0,97,0.00,CLR,,0.00,0.0,WeatherDisplay:10.37,2013-06-24 19:45:00,
2013-06-25 05:50:00,53.1,52.5,30.07,NE,45,0.0,2.0,98,0.00,CLR,,0.00,0.0,WeatherDisplay:10.37,2013-06-24 19:50:00,
2013-06-25 06:00:00,52.5,52.0,30.08,NE,45,0.0,1.0,98,0.00,CLR,,0.00,0.0,WeatherDisplay:10.37,2013-06-24 20:00:00,
2013-06-25 06:05:00,52.3,51.8,30.08,NE,45,0.0,0.0,98,0.00,CLR,,0.00,0.0,WeatherDisplay:10.37,2013-06-24 20:05:00,
2013-06-25 06:10:00,52.2,51.6,30.08,NE,45,0.0,0.0,98,0.00,CLR,,0.00,0.0,WeatherDisplay:10.37,2013-06-24 20:10:00,
2013-06-25 06:20:00,52.0,51.4,30.09,NE,45,0.0,2.0,98,0.00,CLR,,0.00,0.0,WeatherDisplay:10.37,2013-06-24 20:20:00,
2013-06-25 06:25:00,52.0,51.4,30.09,NE,45,0.0,1.0,98,0.00,CLR,,0.00,0.0,WeatherDisplay:10.37,2013-06-24 20:25:00,
2013-06-25 06:30:00,52.0,51.4,30.09,NE,45,1.0,2.0,98,0.00,CLR,,0.00,0.0,WeatherDisplay:10.37,2013-06-24 20:30:00,
2013-06-25 06:35:00,51.8,51.3,30.09,NE,45,0.0,2.0,98,0.00,CLR,,0.00,0.0,WeatherDisplay:10.37,2013-06-24 20:35:00,
2013-06-25 06:40:00,51.6,51.3,30.08,NE,45,0.0,0.0,99,0.00,CLR,,0.00,0.0,WeatherDisplay:10.37,2013-06-24 20:40:00,
2013-06-25 06:45:00,51.6,51.3,30.09,NE,45,0.0,1.0,99,0.00,CLR,,0.00,0.0,WeatherDisplay:10.37,2013-06-24 20:45:00,
2013-06-25 06:50:00,51.6,51.3,30.09,NE,45,0.0,1.0,99,0.00,CLR,,0.00,2.8,WeatherDisplay:10.37,2013-06-24 20:50:00,
2013-06-25 06:55:00,51.4,51.2,30.09,NE,45,0.0,0.0,99,0.00,CLR,,0.00,7.0,WeatherDisplay:10.37,2013-06-24 20:55:00,
2013-06-25 07:00:00,51.4,51.2,30.10,NE,45,0.0,0.0,99,0.00,BKN,,0.00,12.4,WeatherDisplay:10.37,2013-06-24 21:00:00,
2013-06-25 07:05:00,51.4,51.2,30.10,NE,45,0.0,0.0,99,0.00,BKN,,0.00,17.9,WeatherDisplay:10.37,2013-06-24 21:05:00,
2013-06-25 07:10:00,51.6,51.3,30.09,NE,45,0.0,1.0,99,0.00,BKN,,0.00,28.6,WeatherDisplay:10.37,2013-06-24 21:10:00,
2013-06-25 07:15:00,51.8,51.3,30.09,NE,45,0.0,2.0,98,0.00,BKN,,0.00,34.5,WeatherDisplay:10.37,2013-06-24 21:15:00,
2013-06-25 07:20:00,52.3,51.7,30.09,NE,45,0.0,1.0,98,0.00,BKN,,0.00,41.9,WeatherDisplay:10.37,2013-06-24 21:20:00,
2013-06-25 07:30:00,53.4,52.8,30.09,NE,45,0.0,1.0,98,0.00,CLR,,0.00,72.0,WeatherDisplay:10.37,2013-06-24 21:30:00,
2013-06-25 07:35:00,53.2,52.7,30.10,NE,45,1.0,2.0,98,0.00,CLR,,0.00,57.0,WeatherDisplay:10.37,2013-06-24 21:35:00,
2013-06-25 07:40:00,53.2,52.7,30.10,NE,45,0.0,2.0,98,0.00,CLR,,0.00,42.0,WeatherDisplay:10.37,2013-06-24 21:40:00,
2013-06-25 07:50:00,54.7,53.8,30.10,NE,45,0.0,0.0,97,0.00,CLR,,0.00,14.0,WeatherDisplay:10.37,2013-06-24 21:50:00,
2013-06-25 07:55:00,55.3,54.7,30.10,NE,45,0.0,0.0,98,0.00,CLR,,0.00,147.5,WeatherDisplay:10.37,2013-06-24 21:55:00,
2013-06-25 08:10:00,59.4,59.1,30.11,NE,45,0.0,0.0,99,0.00,OVC,,0.00,252.8,WeatherDisplay:10.37,2013-06-24 22:10:00,
2013-06-25 08:15:00,59.3,59.1,30.11,NE,45,0.0,2.0,99,0.00,OVC,,0.00,206.7,WeatherDisplay:10.37,2013-06-24 22:15:00,
2013-06-25 08:30:00,59.4,59.1,30.11,NE,45,1.0,2.0,99,0.00,OVC,,0.00,338.0,WeatherDisplay:10.37,2013-06-24 22:30:00,
2013-06-25 08:45:00,62.3,61.2,30.12,NE,45,1.0,3.0,96,0.00,OVC,,0.00,459.0,WeatherDisplay:10.37,2013-06-24 22:45:00,
2013-06-25 08:50:00,63.1,60.7,30.12,NE,45,1.0,3.0,92,0.00,OVC,,0.00,475.2,WeatherDisplay:10.37,2013-06-24 22:50:00,
2013-06-25 08:55:00,63.9,60.3,30.12,NE,45,1.0,3.0,88,0.00,OVC,,0.00,506.8,WeatherDisplay:10.37,2013-06-24 22:55:00,
2013-06-25 09:00:00,66.0,61.7,30.12,NE,45,1.0,2.0,86,0.00,OVC,,0.00,538.3,WeatherDisplay:10.37,2013-06-24 23:00:00,
2013-06-25 09:05:00,67.4,62.4,30.12,NE,45,1.0,3.0,84,0.00,OVC,,0.00,566.9,WeatherDisplay:10.37,2013-06-24 23:05:00,
2013-06-25 09:15:00,68.5,61.4,30.12,NE,45,0.0,2.0,78,0.00,OVC,,0.00,614.3,WeatherDisplay:10.37,2013-06-24 23:15:00,
2013-06-25 09:25:00,72.4,63.7,30.12,NE,45,0.0,1.0,74,0.00,OVC,,0.00,664.5,WeatherDisplay:10.37,2013-06-24 23:25:00,
2013-06-25 09:30:00,73.0,62.2,30.12,NE,45,0.0,0.0,69,0.00,OVC,,0.00,689.9,WeatherDisplay:10.37,2013-06-24 23:30:00,
2013-06-25 09:35:00,74.3,61.8,30.12,NE,45,0.0,0.0,65,0.00,OVC,,0.00,716.8,WeatherDisplay:10.37,2013-06-24 23:35:00,
2013-06-25 09:40:00,73.9,60.1,30.12,NE,45,0.0,0.0,62,0.00,OVC,,0.00,737.1,WeatherDisplay:10.37,2013-06-24 23:40:00,
2013-06-25 09:45:00,73.0,60.1,30.11,NE,45,1.0,3.0,64,0.00,OVC,,0.00,753.0,WeatherDisplay:10.37,2013-06-24 23:45:00,
2013-06-25 09:50:00,73.0,60.1,30.12,NE,45,1.0,5.0,64,0.00,OVC,,0.00,776.8,WeatherDisplay:10.37,2013-06-24 23:50:00,
2013-06-25 09:55:00,72.6,59.7,30.12,NE,45,2.0,6.0,64,0.00,OVC,,0.00,796.2,WeatherDisplay:10.37,2013-06-24 23:55:00,
2013-06-25 10:00:00,72.6,60.6,30.11,NE,45,3.0,6.0,66,0.00,OVC,,0.00,815.9,WeatherDisplay:10.37,2013-06-25 00:00:00,
2013-06-25 10:10:00,73.1,60.2,30.11,NE,40,3.0,8.0,64,0.00,OVC,,0.00,857.7,WeatherDisplay:10.37,2013-06-25 00:10:00,
2013-06-25 10:15:00,73.0,60.1,30.11,NNE,17,1.0,7.0,64,0.00,OVC,,0.00,878.1,WeatherDisplay:10.37,2013-06-25 00:15:00,
2013-06-25 10:20:00,74.7,62.2,30.11,North,0,2.0,4.0,65,0.00,OVC,,0.00,903.0,WeatherDisplay:10.37,2013-06-25 00:20:00,
2013-06-25 10:35:00,75.2,61.8,30.10,North,0,0.0,6.0,63,0.00,OVC,,0.00,958.8,WeatherDisplay:10.37,2013-06-25 00:35:00,
2013-06-25 10:40:00,76.6,61.2,30.10,North,0,1.0,7.0,59,0.00,OVC,,0.00,976.4,WeatherDisplay:10.37,2013-06-25 00:40:00,
2013-06-25 10:45:00,76.5,61.5,30.10,North,0,2.0,8.0,60,0.00,OVC,,0.00,994.4,WeatherDisplay:10.37,2013-06-25 00:45:00,
2013-06-25 10:50:00,76.5,61.6,30.10,North,0,2.0,6.0,60,0.00,OVC,,0.00,1009.3,WeatherDisplay:10.37,2013-06-25 00:50:00,
2013-06-25 11:00:00,78.1,61.7,30.10,North,0,2.0,6.0,57,0.00,OVC,,0.00,1043.3,WeatherDisplay:10.37,2013-06-25 01:00:00,
2013-06-25 11:05:00,78.1,61.1,30.09,North,0,2.0,6.0,56,0.00,OVC,,0.00,1052.0,WeatherDisplay:10.37,2013-06-25 01:05:00,
2013-06-25 11:10:00,77.2,60.8,30.09,North,4,1.0,6.0,57,0.00,OVC,,0.00,1064.1,WeatherDisplay:10.37,2013-06-25 01:10:00,
2013-06-25 11:15:00,77.1,61.1,30.09,NNE,27,7.0,8.0,58,0.00,OVC,,0.00,1071.6,WeatherDisplay:10.37,2013-06-25 01:15:00,
2013-06-25 11:20:00,76.1,60.7,30.08,NE,40,5.0,8.0,59,0.00,OVC,,0.00,1077.3,WeatherDisplay:10.37,2013-06-25 01:20:00,
2013-06-25 11:25:00,77.0,61.1,30.09,NE,45,2.0,6.0,58,0.00,OVC,,0.00,1091.8,WeatherDisplay:10.37,2013-06-25 01:25:00,
2013-06-25 11:30:00,78.9,61.4,30.08,NE,45,2.0,6.0,55,0.00,OVC,,0.00,1111.6,WeatherDisplay:10.37,2013-06-25 01:30:00,
2013-06-25 11:35:00,78.7,61.1,30.08,NE,45,2.0,8.0,55,0.00,OVC,,0.00,1123.6,WeatherDisplay:10.37,2013-06-25 01:35:00,
2013-06-25 11:40:00,78.8,61.3,30.07,NNE,27,6.0,9.0,55,0.00,OVC,,0.00,1129.0,WeatherDisplay:10.37,2013-06-25 01:40:00,
2013-06-25 11:45:00,78.6,61.6,30.08,NNE,24,2.0,9.0,56,0.00,OVC,,0.00,1136.5,WeatherDisplay:10.37,2013-06-25 01:45:00,
2013-06-25 11:50:00,78.9,60.9,30.08,NE,44,7.0,9.0,54,0.00,OVC,,0.00,1144.8,WeatherDisplay:10.37,2013-06-25 01:50:00,
2013-06-25 11:55:00,78.5,61.5,30.07,NE,45,2.0,9.0,56,0.00,OVC,,0.00,1144.5,WeatherDisplay:10.37,2013-06-25 01:55:00,
2013-06-25 12:00:00,79.8,61.7,30.07,NE,45,6.0,8.0,54,0.00,OVC,,0.00,1157.5,WeatherDisplay:10.37,2013-06-25 02:00:00,
2013-06-25 12:10:00,78.9,60.9,30.06,NE,45,3.0,6.0,54,0.00,OVC,,0.00,1161.8,WeatherDisplay:10.37,2013-06-25 02:10:00,
2013-06-25 12:20:00,79.5,60.9,30.06,East,81,1.0,8.0,53,0.00,OVC,,0.00,1171.6,WeatherDisplay:10.37,2013-06-25 02:20:00,
2013-06-25 12:25:00,79.5,60.3,30.06,East,91,2.0,8.0,52,0.00,OVC,,0.00,1173.9,WeatherDisplay:10.37,2013-06-25 02:25:00,
2013-06-25 12:30:00,79.8,60.6,30.05,East,91,2.0,7.0,52,0.00,OVC,,0.00,1176.9,WeatherDisplay:10.37,2013-06-25 02:30:00,
2013-06-25 12:35:00,81.5,61.0,30.05,East,90,5.0,8.0,50,0.00,OVC,,0.00,1184.7,WeatherDisplay:10.37,2013-06-25 02:35:00,
2013-06-25 12:40:00,80.5,60.7,30.05,East,90,5.0,9.0,51,0.00,OVC,,0.00,1178.2,WeatherDisplay:10.37,2013-06-25 02:40:00,
2013-06-25 12:45:00,80.2,61.0,30.04,East,90,5.0,9.0,52,0.00,OVC,,0.00,1172.4,WeatherDisplay:10.37,2013-06-25 02:45:00,
2013-06-25 12:50:00,81.5,60.5,30.04,East,90,3.0,8.0,49,0.00,OVC,,0.00,1176.1,WeatherDisplay:10.37,2013-06-25 02:50:00,
2013-06-25 12:55:00,81.1,60.7,30.03,East,90,5.0,8.0,50,0.00,OVC,,0.00,1168.3,WeatherDisplay:10.37,2013-06-25 02:55:00,
2013-06-25 13:00:00,80.8,61.0,30.03,ENE,72,2.0,8.0,51,0.00,OVC,,0.00,1168.1,WeatherDisplay:10.37,2013-06-25 03:00:00,
2013-06-25 13:05:00,81.9,62.0,30.02,NNE,26,7.0,11.0,51,0.00,OVC,,0.00,1163.2,WeatherDisplay:10.37,2013-06-25 03:05:00,
2013-06-25 13:10:00,81.0,61.7,30.02,NNE,18,6.0,10.0,52,0.00,OVC,,0.00,1150.7,WeatherDisplay:10.37,2013-06-25 03:10:00,
2013-06-25 13:25:00,80.8,62.6,30.01,NNE,18,8.0,15.0,54,0.00,OVC,,0.00,1124.1,WeatherDisplay:10.37,2013-06-25 03:25:00,
2013-06-25 13:30:00,79.5,62.4,30.01,NE,35,7.0,15.0,56,0.00,OVC,,0.00,1120.3,WeatherDisplay:10.37,2013-06-25 03:30:00,
2013-06-25 13:35:00,79.0,62.5,30.01,NE,42,8.0,13.0,57,0.00,OVC,,0.00,1102.6,WeatherDisplay:10.37,2013-06-25 03:35:00,
2013-06-25 13:50:00,79.0,63.4,30.01,NE,45,8.0,14.0,59,0.00,OVC,,0.00,1059.0,WeatherDisplay:10.37,2013-06-25 03:50:00,
2013-06-25 13:55:00,78.6,63.6,30.01,NE,39,8.0,14.0,60,0.00,OVC,,0.00,1040.1,WeatherDisplay:10.37,2013-06-25 03:55:00,
2013-06-25 14:00:00,78.4,63.4,30.00,NE,34,8.0,14.0,60,0.00,OVC,,0.00,1022.7,WeatherDisplay:10.37,2013-06-25 04:00:00,
2013-06-25 14:05:00,78.1,63.1,30.00,NE,42,9.0,13.0,60,0.00,OVC,,0.00,1005.4,WeatherDisplay:10.37,2013-06-25 04:05:00,
2013-06-25 14:10:00,77.2,62.7,30.00,NE,45,10.0,15.0,61,0.00,OVC,,0.00,989.3,WeatherDisplay:10.37,2013-06-25 04:10:00,
2013-06-25 14:15:00,77.2,63.2,30.00,NE,38,7.0,15.0,62,0.00,OVC,,0.00,969.6,WeatherDisplay:10.37,2013-06-25 04:15:00,
2013-06-25 14:20:00,77.2,63.2,30.00,NNE,14,7.0,14.0,62,0.00,OVC,,0.00,956.5,WeatherDisplay:10.37,2013-06-25 04:20:00,
2013-06-25 14:25:00,77.2,63.2,30.00,North,0,8.0,14.0,62,0.00,OVC,,0.00,944.0,WeatherDisplay:10.37,2013-06-25 04:25:00,
2013-06-25 14:30:00,77.2,63.6,30.00,North,0,10.0,14.0,63,0.00,OVC,,0.00,925.1,WeatherDisplay:10.37,2013-06-25 04:30:00,
2013-06-25 14:35:00,77.2,63.6,30.00,North,3,9.0,14.0,63,0.00,OVC,,0.00,908.3,WeatherDisplay:10.37,2013-06-25 04:35:00,
2013-06-25 14:40:00,77.2,63.6,29.99,NNE,25,9.0,15.0,63,0.00,OVC,,0.00,892.0,WeatherDisplay:10.37,2013-06-25 04:40:00,
2013-06-25 14:45:00,77.3,63.8,29.99,NE,34,6.0,10.0,63,0.00,OVC,,0.00,863.6,WeatherDisplay:10.37,2013-06-25 04:45:00,
2013-06-25 14:50:00,77.5,63.9,29.99,NNE,24,8.0,13.0,63,0.00,OVC,,0.00,874.1,WeatherDisplay:10.37,2013-06-25 04:50:00,
2013-06-25 14:55:00,77.2,63.6,30.00,NNE,32,12.0,14.0,63,0.00,OVC,,0.00,833.9,WeatherDisplay:10.37,2013-06-25 04:55:00,
2013-06-25 15:00:00,76.7,64.1,29.99,NNE,16,12.0,15.0,65,0.00,OVC,,0.00,807.8,WeatherDisplay:10.37,2013-06-25 05:00:00,
2013-06-25 15:05:00,77.0,63.9,29.99,North,7,7.0,15.0,64,0.00,OVC,,0.00,788.1,WeatherDisplay:10.37,2013-06-25 05:05:00,
2013-06-25 15:10:00,76.9,63.8,29.99,North,3,10.0,15.0,64,0.00,OVC,,0.00,768.9,WeatherDisplay:10.37,2013-06-25 05:10:00,
2013-06-25 15:15:00,76.3,64.1,29.99,North,0,9.0,15.0,66,0.00,OVC,,0.00,750.0,WeatherDisplay:10.37,2013-06-25 05:15:00,
2013-06-25 15:20:00,76.3,64.1,29.99,North,7,10.0,17.0,66,0.00,OVC,,0.00,726.4,WeatherDisplay:10.37,2013-06-25 05:20:00,
2013-06-25 15:25:00,75.4,63.7,29.99,NNE,22,9.0,17.0,67,0.00,OVC,,0.00,695.9,WeatherDisplay:10.37,2013-06-25 05:25:00,
2013-06-25 15:30:00,75.3,64.5,29.99,NNE,21,10.0,15.0,69,0.00,OVC,,0.00,638.5,WeatherDisplay:10.37,2013-06-25 05:30:00,
2013-06-25 15:35:00,74.7,64.2,29.99,NE,49,12.0,16.0,70,0.00,OVC,,0.00,641.3,WeatherDisplay:10.37,2013-06-25 05:35:00,
2013-06-25 15:40:00,73.7,63.7,29.99,NE,54,9.0,15.0,71,0.00,OVC,,0.00,530.4,WeatherDisplay:10.37,2013-06-25 05:40:00,
2013-06-25 15:45:00,73.0,63.5,29.99,NNE,24,7.0,15.0,72,0.00,OVC,,0.00,596.9,WeatherDisplay:10.37,2013-06-25 05:45:00,
2013-06-25 15:50:00,73.3,64.2,29.99,NNE,21,12.0,17.0,73,0.00,OVC,,0.00,582.8,WeatherDisplay:10.37,2013-06-25 05:50:00,
2013-06-25 15:55:00,72.9,63.3,29.99,NE,44,8.0,17.0,72,0.00,OVC,,0.00,533.9,WeatherDisplay:10.37,2013-06-25 05:55:00,
2013-06-25 16:00:00,72.6,63.4,29.99,NE,51,7.0,13.0,73,0.00,CLR,,0.00,525.4,WeatherDisplay:10.37,2013-06-25 06:00:00,
2013-06-25 16:05:00,72.5,63.4,29.99,ENE,65,9.0,13.0,73,0.00,CLR,,0.00,513.1,WeatherDisplay:10.37,2013-06-25 06:05:00,
2013-06-25 16:10:00,72.1,63.0,29.99,ENE,63,8.0,15.0,73,0.00,CLR,,0.00,475.7,WeatherDisplay:10.37,2013-06-25 06:10:00,
2013-06-25 16:15:00,72.0,62.9,29.99,NE,47,9.0,15.0,73,0.00,CLR,,0.00,429.8,WeatherDisplay:10.37,2013-06-25 06:15:00,
2013-06-25 16:20:00,71.4,63.1,29.99,ENE,65,8.0,14.0,75,0.00,CLR,,0.00,400.6,WeatherDisplay:10.37,2013-06-25 06:20:00,
2013-06-25 16:25:00,71.1,62.7,29.99,ENE,61,8.0,15.0,75,0.00,CLR,,0.00,377.4,WeatherDisplay:10.37,2013-06-25 06:25:00,
2013-06-25 16:30:00,70.9,62.6,29.99,NE,47,8.0,14.0,75,0.00,CLR,,0.00,351.4,WeatherDisplay:10.37,2013-06-25 06:30:00,
2013-06-25 16:35:00,71.0,62.7,29.99,NE,45,9.0,14.0,75,0.00,CLR,,0.00,324.8,WeatherDisplay:10.37,2013-06-25 06:35:00,
2013-06-25 16:40:00,70.5,62.6,29.99,NE,45,9.0,13.0,76,0.00,CLR,,0.00,295.4,WeatherDisplay:10.37,2013-06-25 06:40:00,
2013-06-25 16:45:00,70.3,62.4,29.99,NE,45,7.0,12.0,76,0.00,CLR,,0.00,262.1,WeatherDisplay:10.37,2013-06-25 06:45:00,
2013-06-25 16:50:00,70.3,62.4,29.99,NE,45,8.0,15.0,76,0.00,CLR,,0.00,244.6,WeatherDisplay:10.37,2013-06-25 06:50:00,
2013-06-25 16:55:00,69.8,61.9,29.99,NE,50,9.0,14.0,76,0.00,CLR,,0.00,220.7,WeatherDisplay:10.37,2013-06-25 06:55:00,
2013-06-25 17:00:00,69.6,62.1,30.00,NE,50,7.0,14.0,77,0.00,CLR,,0.00,190.7,WeatherDisplay:10.37,2013-06-25 07:00:00,
2013-06-25 17:05:00,69.8,61.8,30.00,NE,45,7.0,10.0,76,0.00,CLR,,0.00,160.3,WeatherDisplay:10.37,2013-06-25 07:05:00,
2013-06-25 17:10:00,69.4,61.5,30.00,NE,45,8.0,17.0,76,0.00,CLR,,0.00,135.8,WeatherDisplay:10.37,2013-06-25 07:10:00,
2013-06-25 17:15:00,69.1,61.6,30.00,NE,45,6.0,13.0,77,0.00,CLR,,0.00,116.0,WeatherDisplay:10.37,2013-06-25 07:15:00,
2013-06-25 17:20:00,69.1,61.6,30.00,NE,45,5.0,11.0,77,0.00,CLR,,0.00,94.3,WeatherDisplay:10.37,2013-06-25 07:20:00,
2013-06-25 17:25:00,68.7,61.2,30.01,NE,45,8.0,14.0,77,0.00,CLR,,0.00,71.6,WeatherDisplay:10.37,2013-06-25 07:25:00,
2013-06-25 17:30:00,68.3,60.9,30.01,NE,45,7.0,14.0,77,0.00,CLR,,0.00,54.5,WeatherDisplay:10.37,2013-06-25 07:30:00,
2013-06-25 17:35:00,68.0,60.9,30.01,NE,45,5.0,10.0,78,0.00,CLR,,0.00,30.5,WeatherDisplay:10.37,2013-06-25 07:35:00,
2013-06-25 17:40:00,67.5,61.1,30.01,NE,45,6.0,10.0,80,0.00,CLR,,0.00,18.1,WeatherDisplay:10.37,2013-06-25 07:40:00,
2013-06-25 17:45:00,66.9,60.5,30.01,NE,45,5.0,8.0,80,0.00,CLR,,0.00,13.2,WeatherDisplay:10.37,2013-06-25 07:45:00,
2013-06-25 17:50:00,66.4,60.7,30.01,NE,45,6.0,9.0,82,0.00,CLR,,0.00,7.7,WeatherDisplay:10.37,2013-06-25 07:50:00,
2013-06-25 17:55:00,66.2,60.5,30.01,NE,45,5.0,9.0,82,0.00,CLR,,0.00,3.4,WeatherDisplay:10.37,2013-06-25 07:55:00,
2013-06-25 18:00:00,65.8,60.5,30.02,NE,45,2.0,8.0,83,0.00,CLR,,0.00,0.0,WeatherDisplay:10.37,2013-06-25 08:00:00,
2013-06-25 18:05:00,65.7,60.7,30.02,NE,45,5.0,7.0,84,0.00,CLR,,0.00,0.0,WeatherDisplay:10.37,2013-06-25 08:05:00,
2013-06-25 18:10:00,65.7,60.4,30.02,NE,45,3.0,7.0,83,0.00,CLR,,0.00,0.0,WeatherDisplay:10.37,2013-06-25 08:10:00,
2013-06-25 18:15:00,65.7,60.4,30.02,NE,45,5.0,7.0,83,0.00,CLR,,0.00,0.0,WeatherDisplay:10.37,2013-06-25 08:15:00,
2013-06-25 18:20:00,65.8,60.2,30.02,NE,45,5.0,6.0,82,0.00,CLR,,0.00,0.0,WeatherDisplay:10.37,2013-06-25 08:20:00,
2013-06-25 18:25:00,65.8,60.2,30.02,NE,45,3.0,7.0,82,0.00,CLR,,0.00,0.0,WeatherDisplay:10.37,2013-06-25 08:25:00,
2013-06-25 18:30:00,65.8,60.2,30.02,NE,45,6.0,9.0,82,0.00,CLR,,0.00,0.0,WeatherDisplay:10.37,2013-06-25 08:30:00,
2013-06-25 18:35:00,66.2,59.8,30.02,NE,45,5.0,10.0,80,0.00,CLR,,0.00,0.0,WeatherDisplay:10.37,2013-06-25 08:35:00,
2013-06-25 18:40:00,66.2,59.8,30.02,NE,45,5.0,7.0,80,0.00,CLR,,0.00,0.0,WeatherDisplay:10.37,2013-06-25 08:40:00,
2013-06-25 18:45:00,66.2,59.8,30.02,NE,45,2.0,6.0,80,0.00,CLR,,0.00,0.0,WeatherDisplay:10.37,2013-06-25 08:45:00,
2013-06-25 18:50:00,66.2,59.8,30.02,NE,45,2.0,6.0,80,0.00,CLR,,0.00,0.0,WeatherDisplay:10.37,2013-06-25 08:50:00,
2013-06-25 18:55:00,66.2,59.8,30.03,NE,45,1.0,5.0,80,0.00,CLR,,0.00,0.0,WeatherDisplay:10.37,2013-06-25 08:55:00,
2013-06-25 19:00:00,66.2,60.2,30.02,NE,45,2.0,4.0,81,0.00,CLR,,0.00,0.0,WeatherDisplay:10.37,2013-06-25 09:00:00,
2013-06-25 19:05:00,66.2,60.5,30.02,NE,45,3.0,5.0,82,0.00,CLR,,0.00,0.0,WeatherDisplay:10.37,2013-06-25 09:05:00,
2013-06-25 19:10:00,66.2,60.9,30.03,NE,45,2.0,6.0,83,0.00,CLR,,0.00,0.0,WeatherDisplay:10.37,2013-06-25 09:10:00,
2013-06-25 19:15:00,65.8,61.2,30.03,NE,45,2.0,4.0,85,0.00,CLR,,0.00,0.0,WeatherDisplay:10.37,2013-06-25 09:15:00,
2013-06-25 19:20:00,65.8,61.2,30.04,NE,45,2.0,4.0,85,0.00,CLR,,0.00,0.0,WeatherDisplay:10.37,2013-06-25 09:20:00,
2013-06-25 19:30:00,65.3,61.0,30.05,NE,45,2.0,5.0,86,0.00,CLR,,0.00,0.0,WeatherDisplay:10.37,2013-06-25 09:30:00,
2013-06-25 19:35:00,65.3,61.0,30.04,NE,45,3.0,4.0,86,0.00,CLR,,0.00,0.0,WeatherDisplay:10.37,2013-06-25 09:35:00,
2013-06-25 19:40:00,65.1,60.8,30.04,NE,45,2.0,4.0,86,0.00,CLR,,0.00,0.0,WeatherDisplay:10.37,2013-06-25 09:40:00,
2013-06-25 19:45:00,64.9,60.6,30.05,NE,45,2.0,3.0,86,0.00,CLR,,0.00,0.0,WeatherDisplay:10.37,2013-06-25 09:45:00,
2013-06-25 19:50:00,64.9,60.9,30.04,NE,45,3.0,5.0,87,0.00,CLR,,0.00,0.0,WeatherDisplay:10.37,2013-06-25 09:50:00,
2013-06-25 19:55:00,64.8,60.8,30.04,NE,45,2.0,4.0,87,0.00,CLR,,0.00,0.0,WeatherDisplay:10.37,2013-06-25 09:55:00,
2013-06-25 20:00:00,64.8,60.8,30.04,NE,45,2.0,4.0,87,0.00,CLR,,0.00,0.0,WeatherDisplay:10.37,2013-06-25 10:00:00,
2013-06-25 20:05:00,64.8,61.1,30.05,NE,45,1.0,5.0,88,0.00,CLR,,0.00,0.0,WeatherDisplay:10.37,2013-06-25 10:05:00,
2013-06-25 20:10:00,64.8,60.8,30.05,NE,45,2.0,4.0,87,0.00,CLR,,0.00,0.0,WeatherDisplay:10.37,2013-06-25 10:10:00,
2013-06-25 20:15:00,64.8,60.8,30.05,NE,45,2.0,4.0,87,0.00,CLR,,0.00,0.0,WeatherDisplay:10.37,2013-06-25 10:15:00,
2013-06-25 20:20:00,64.8,60.8,30.05,NE,45,0.0,3.0,87,0.00,CLR,,0.00,0.0,WeatherDisplay:10.37,2013-06-25 10:20:00,
2013-06-25 20:25:00,64.7,60.8,30.05,NE,45,0.0,0.0,87,0.00,CLR,,0.00,0.0,WeatherDisplay:10.37,2013-06-25 10:25:00,
2013-06-25 20:30:00,64.4,60.4,30.06,NE,45,0.0,1.0,87,0.00,CLR,,0.00,0.0,WeatherDisplay:10.37,2013-06-25 10:30:00,
2013-06-25 20:35:00,64.2,60.3,30.06,NE,45,0.0,0.0,87,0.00,CLR,,0.00,0.0,WeatherDisplay:10.37,2013-06-25 10:35:00,
2013-06-25 20:40:00,64.0,60.1,30.06,NE,45,0.0,0.0,87,0.00,CLR,,0.00,0.0,WeatherDisplay:10.37,2013-06-25 10:40:00,
2013-06-25 20:45:00,63.9,60.2,30.06,NE,45,0.0,0.0,88,0.00,CLR,,0.00,0.0,WeatherDisplay:10.37,2013-06-25 10:45:00,
2013-06-25 20:50:00,63.7,60.1,30.06,NE,45,1.0,3.0,88,0.00,CLR,,0.00,0.0,WeatherDisplay:10.37,2013-06-25 10:50:00,
2013-06-25 20:55:00,63.6,60.3,30.06,NE,45,2.0,4.0,89,0.00,CLR,,0.00,0.0,WeatherDisplay:10.37,2013-06-25 10:55:00,
2013-06-25 21:00:00,63.3,60.0,30.06,NE,45,2.0,5.0,89,0.00,CLR,,0.00,0.0,WeatherDisplay:10.37,2013-06-25 11:00:00,
2013-06-25 21:05:00,63.1,59.8,30.06,NE,45,3.0,6.0,89,0.00,CLR,,0.00,0.0,WeatherDisplay:10.37,2013-06-25 11:05:00,
2013-06-25 21:10:00,63.0,60.0,30.06,NE,45,2.0,5.0,90,0.00,CLR,,0.00,0.0,WeatherDisplay:10.37,2013-06-25 11:10:00,
2013-06-25 21:15:00,62.8,59.8,30.06,NE,45,2.0,4.0,90,0.00,CLR,,0.00,0.0,WeatherDisplay:10.37,2013-06-25 11:15:00,
2013-06-25 21:20:00,62.6,59.9,30.07,NE,45,3.0,6.0,91,0.00,CLR,,0.00,0.0,WeatherDisplay:10.37,2013-06-25 11:20:00,
2013-06-25 21:25:00,62.2,59.9,30.07,NE,45,3.0,6.0,92,0.00,CLR,,0.00,0.0,WeatherDisplay:10.37,2013-06-25 11:25:00,
2013-06-25 21:30:00,62.1,59.7,30.07,NE,45,2.0,6.0,92,0.00,CLR,,0.00,0.0,WeatherDisplay:10.37,2013-06-25 11:30:00,
2013-06-25 21:35:00,62.1,59.7,30.07,NE,45,2.0,4.0,92,0.00,CLR,,0.00,0.0,WeatherDisplay:10.37,2013-06-25 11:35:00,
2013-06-25 21:40:00,61.9,59.5,30.06,NE,45,3.0,6.0,92,0.00,CLR,,0.00,0.0,WeatherDisplay:10.37,2013-06-25 11:40:00,
2013-06-25 21:50:00,61.3,59.0,30.07,NE,45,0.0,0.0,92,0.00,CLR,,0.00,0.0,WeatherDisplay:10.37,2013-06-25 11:50:00,
2013-06-25 21:55:00,61.0,58.6,30.07,NE,45,0.0,0.0,92,0.00,CLR,,0.00,0.0,WeatherDisplay:10.37,2013-06-25 11:55:00,
2013-06-25 22:00:00,60.7,58.6,30.07,NE,45,0.0,0.0,93,0.00,CLR,,0.00,0.0,WeatherDisplay:10.37,2013-06-25 12:00:00,
2013-06-25 22:05:00,60.4,58.7,30.07,NE,45,0.0,2.0,94,0.00,CLR,,0.00,0.0,WeatherDisplay:10.37,2013-06-25 12:05:00,
2013-06-25 22:10:00,60.3,58.5,30.07,NE,45,0.0,2.0,94,0.00,CLR,,0.00,0.0,WeatherDisplay:10.37,2013-06-25 12:10:00,
2013-06-25 22:15:00,59.9,58.2,30.07,NE,45,0.0,0.0,94,0.00,CLR,,0.00,0.0,WeatherDisplay:10.37,2013-06-25 12:15:00,
2013-06-25 22:20:00,59.7,58.0,30.06,NE,45,0.0,0.0,94,0.00,CLR,,0.00,0.0,WeatherDisplay:10.37,2013-06-25 12:20:00,
2013-06-25 22:25:00,59.5,58.1,30.06,NE,45,0.0,0.0,95,0.00,CLR,,0.00,0.0,WeatherDisplay:10.37,2013-06-25 12:25:00,
2013-06-25 22:30:00,59.4,57.9,30.07,NE,45,0.0,0.0,95,0.00,CLR,,0.00,0.0,WeatherDisplay:10.37,2013-06-25 12:30:00,
2013-06-25 22:35:00,59.2,57.7,30.06,NE,45,0.0,0.0,95,0.00,CLR,,0.00,0.0,WeatherDisplay:10.37,2013-06-25 12:35:00,
2013-06-25 22:40:00,59.2,57.7,30.07,NE,45,0.0,0.0,95,0.00,CLR,,0.00,0.0,WeatherDisplay:10.37,2013-06-25 12:40:00,
2013-06-25 22:45:00,59.2,57.7,30.06,NE,45,0.0,0.0,95,0.00,CLR,,0.00,0.0,WeatherDisplay:10.37,2013-06-25 12:45:00,
2013-06-25 22:50:00,59.2,58.0,30.06,NE,45,0.0,0.0,96,0.00,CLR,,0.00,0.0,WeatherDisplay:10.37,2013-06-25 12:50:00,
2013-06-25 22:55:00,59.0,57.9,30.06,NE,45,0.0,0.0,96,0.00,CLR,,0.00,0.0,WeatherDisplay:10.37,2013-06-25 12:55:00,
2013-06-25 23:00:00,58.8,58.0,30.06,NE,45,0.0,0.0,97,0.00,CLR,,0.00,0.0,WeatherDisplay:10.37,2013-06-25 13:00:00,
2013-06-25 23:05:00,58.5,57.6,30.06,NE,45,0.0,0.0,97,0.00,CLR,,0.00,0.0,WeatherDisplay:10.37,2013-06-25 13:05:00,
2013-06-25 23:10:00,58.3,57.4,30.07,NE,45,0.0,0.0,97,0.00,CLR,,0.00,0.0,WeatherDisplay:10.37,2013-06-25 13:10:00,
2013-06-25 23:15:00,58.3,57.4,30.07,NE,45,1.0,3.0,97,0.00,CLR,,0.00,0.0,WeatherDisplay:10.37,2013-06-25 13:15:00,
2013-06-25 23:20:00,57.9,57.1,30.07,NE,45,0.0,2.0,97,0.00,CLR,,0.00,0.0,WeatherDisplay:10.37,2013-06-25 13:20:00,
2013-06-25 23:25:00,57.4,56.9,30.07,NE,45,0.0,0.0,98,0.00,CLR,,0.00,0.0,WeatherDisplay:10.37,2013-06-25 13:25:00,
2013-06-25 23:30:00,57.4,56.8,30.07,NE,45,0.0,0.0,98,0.00,CLR,,0.00,0.0,WeatherDisplay:10.37,2013-06-25 13:30:00,
2013-06-25 23:35:00,57.2,56.6,30.07,NE,45,0.0,0.0,98,0.00,CLR,,0.00,0.0,WeatherDisplay:10.37,2013-06-25 13:35:00,
2013-06-25 23:40:00,57.2,56.6,30.07,NE,45,0.0,0.0,98,0.00,CLR,,0.00,0.0,WeatherDisplay:10.37,2013-06-25 13:40:00,
2013-06-25 23:45:00,56.9,56.7,30.07,NE,45,0.0,0.0,99,0.00,CLR,,0.00,0.0,WeatherDisplay:10.37,2013-06-25 13:45:00,
2013-06-25 23:50:00,56.7,56.4,30.07,NE,45,0.0,0.0,99,0.00,CLR,,0.00,0.0,WeatherDisplay:10.37,2013-06-25 13:50:00,
2013-06-25 23:55:00,56.5,56.2,30.07,NE,45,0.0,0.0,99,0.00,CLR,,0.00,0.0,WeatherDisplay:10.37,2013-06-25 13:55:00,